Weather History for KALW - May, 2014

Change the Weather History Date:

Wednesday, May 7, 2014

  Actual Average Record
Temperature  
Mean Temperature 58 °F -  
Max Temperature 68 °F 69 °F 91 °F (1987)
Min Temperature 50 °F 46 °F 32 °F (2002)
Degree Days  
Heating Degree Days 7    
Growing Degree Days 8 (Base 50)    
Moisture  
Dew Point 37 °F    
Average Humidity 49    
Maximum Humidity 71    
Minimum Humidity 28    
Precipitation  
Precipitation 0.00 in - - ()
Sea Level Pressure  
Sea Level Pressure 29.91 in    
Wind  
Wind Speed 10 mph (South)    
Max Wind Speed 15 mph    
Max Gust Speed -    
Visibility 10 miles    
Events      
Averages and records for this station are not official NWS values.
T = Trace of Precipitation, MM = Missing Value Source: NWS Daily Summary

Daily Weather History Graph

Daily Weather History Graph

Search for Another Location

Airport or City:

Trip Planner

Search our weather history database for the weather conditions in past years. The results will help you decide how hot, cold, wet, or windy it might be!

Date:

Astronomy

May. 07, 2014 Rise Set
Actual Time 5:30 AM PDT 8:09 PM PDT
Civil Twilight 4:56 AM PDT 8:43 PM PDT
Nautical Twilight 4:14 AM PDT 9:26 PM PDT
Astronomical Twilight 3:24 AM PDT 10:16 PM PDT
Moon 12:56 PM PDT (5/7) 1:56 AM PDT (5/7)
Length of Visible Light 15h 46m
Length of Day
14h 38m
First Quarter, 56% of the Moon is Illuminated
May 7
First Quarter
May 14
Full
May 21
Last Quarter
May 28
New
Jun 5
First Quarter

Hourly Weather History & Observations

Time (PDT) Temp. Dew Point Humidity Pressure Visibility Wind Dir Wind Speed Gust Speed Precip Events Conditions
12:53 AM 52.0 °F 43.0 °F 71% 29.92 in 10.0 mi South 13.8 mph - N/A   Mostly Cloudy
2:53 AM 51.1 °F 41.0 °F 68% 29.92 in 10.0 mi South 12.7 mph - N/A   Overcast
3:53 AM 50.0 °F 39.9 °F 68% 29.94 in 10.0 mi South 10.4 mph - N/A   Partly Cloudy
5:53 AM 50.0 °F 39.0 °F 66% 29.94 in 10.0 mi South 13.8 mph - N/A   Overcast
6:53 AM 50.0 °F 37.9 °F 63% 29.95 in 10.0 mi SSW 15.0 mph - N/A   Clear
7:53 AM 53.1 °F 39.0 °F 59% 29.96 in 10.0 mi South 12.7 mph - N/A   Clear
8:53 AM 54.0 °F 39.9 °F 59% 29.97 in 10.0 mi SSW 11.5 mph - N/A   Clear
9:53 AM 55.9 °F 39.9 °F 55% 29.97 in 10.0 mi SW 5.8 mph - N/A   Clear
10:53 AM 59.0 °F 39.9 °F 49% 29.97 in 10.0 mi SW 8.1 mph - N/A   Clear
11:53 AM 61.0 °F 39.0 °F 44% 29.95 in 10.0 mi South 9.2 mph - N/A   Clear
12:53 PM 62.1 °F 36.0 °F 38% 29.93 in 10.0 mi Calm Calm - N/A   Clear
1:53 PM 64.0 °F 36.0 °F 35% 29.92 in 10.0 mi Variable 4.6 mph - N/A   Clear
3:53 PM 66.0 °F 32.0 °F 28% 29.88 in 10.0 mi Calm Calm - N/A   Clear
4:53 PM 66.9 °F 33.1 °F 28% 29.87 in 10.0 mi WSW 5.8 mph - N/A   Clear
5:53 PM 66.9 °F 33.1 °F 28% 29.86 in 10.0 mi South 5.8 mph - N/A   Clear
6:53 PM 66.0 °F 32.0 °F 28% 29.86 in 10.0 mi SSE 10.4 mph - N/A   Clear
7:53 PM 62.1 °F 35.1 °F 37% 29.86 in 10.0 mi South 8.1 mph - N/A   Clear
8:53 PM 59.0 °F 36.0 °F 42% 29.87 in 10.0 mi SE 8.1 mph - N/A   Clear
9:53 PM 54.0 °F 37.0 °F 53% 29.87 in 10.0 mi ESE 9.2 mph - N/A   Clear
10:53 PM 52.0 °F 36.0 °F 54% 29.86 in 10.0 mi ESE 9.2 mph - N/A   Clear